Home   Weather   Bnei Brak   Past weeks

Flag for Israel Past Weather in Bnei Brak, Israel — Yesterday and Last 2 Weeks

Now
70 °F

Sunny.


Feels Like: 70 °F
Forecast: 58 / 78 °F
Wind: 10 mph from West

Location: Dov Airport

Current Time: Apr 28, 2017 at 1:32:59 pm

Latest Report: Apr 28, 2017 at 12:50 pm


Visibility: 10 mi

Pressure: 29.98 "Hg

Humidity: 69%

Dew Point: 59 °F

Location of Bnei BrakLocation

Past Weather in Bnei Brak — Graph

°F

Bnei Brak Temperature Yesterday

Maximum temperature yesterday: 73 °F (at 2:50 pm)
Minimum temperature yesterday: 64 °F (at 5:30 am)
Average temperature yesterday: 69 °F

High & Low Weather Summary for the Past Weeks

 TemperatureHumidityPressure
High88 °F (Apr 22, 2:50 pm)88% (Apr 17, 6:00 am)30.12 "Hg (Apr 17, 6:00 am)
Low57 °F (Apr 17, 6:00 am)22% (Apr 22, 10:50 am)29.65 "Hg (Apr 22, 4:50 pm)
Average68 °F65%29.98 "Hg
* Reported Apr 13 11:50 am — Apr 28 11:50 am, Bnei Brak, Weather by CustomWeather, © 2017

Note: Actual official high and low records may vary slightly from our data, if they occured in-between our weather recording intervals... More about our weather records

Advertising

Bnei Brak Weather History for the Previous 24 Hours

Scroll right to see more
 ConditionsComfort  
Time TempWeatherWind HumidityBarometerVisibility
11:50 am
Fri, Apr 28
72 °FSunny.10 mph65%29.98 "Hg10 mi
10:50 am70 °FSunny.12 mph69%29.98 "Hg10 mi
9:50 am70 °FSunny.12 mph73%29.98 "Hg10 mi
8:50 am68 °FScattered clouds.6 mph73%29.98 "HgN/A
7:50 am64 °FScattered clouds.5 mph83%29.98 "HgN/A
6:50 am63 °FPassing clouds.2 mph83%29.98 "HgN/A
5:50 am61 °FPassing clouds.3 mph88%29.95 "HgN/A
5:00 am61 °FClear.5 mph88%29.95 "Hg10 mi
11:50 pm
Thu, Apr 27
66 °FClear.6 mph83%29.98 "Hg10 mi
10:50 pm66 °FClear.5 mph73%29.98 "Hg10 mi
9:50 pm66 °FClear.5 mph73%29.98 "Hg10 mi
8:50 pm66 °FClear.3 mph73%29.98 "Hg10 mi
7:50 pm68 °FClear.5 mph73%29.95 "Hg10 mi
6:50 pm68 °FSunny.3 mph69%29.95 "Hg10 mi
5:50 pm70 °FSunny.7 mph69%29.95 "Hg10 mi
4:50 pm72 °FSunny.10 mph65%29.95 "Hg10 mi
3:50 pm72 °FSunny.10 mph65%29.95 "Hg10 mi
2:50 pm73 °FSunny.10 mph65%29.95 "Hg10 mi
1:50 pm72 °FSunny.12 mph69%29.95 "Hg10 mi
Weather by CustomWeather, © 2017

See weather overviewHow to use our weather pages